Time,TemperatureF,DewpointF,PressureIn,WindDirection,WindDirectionDegrees,WindSpeedMPH,WindSpeedGustMPH,Humidity,HourlyPrecipIn,Conditions,Clouds,dailyrainin,SoftwareType,DateUTC
2013-12-30 00:01:00,26.4,19.6,-100.00,NW,319,8.0,15.0,75,0.00,,,0.00,meteohub,2013-12-30 05:01:00,
2013-12-30 00:04:00,26.4,19.9,-100.00,NNW,345,9.0,15.0,76,0.00,,,0.00,meteohub,2013-12-30 05:04:00,
2013-12-30 00:09:00,26.4,20.1,-100.00,WNW,297,7.0,15.0,77,0.00,,,0.00,meteohub,2013-12-30 05:09:00,
2013-12-30 00:14:00,26.4,19.9,-100.00,NNW,329,10.0,15.0,76,0.00,,,0.00,meteohub,2013-12-30 05:14:00,
2013-12-30 00:19:00,26.2,19.4,-100.00,NW,309,8.0,16.0,75,0.00,,,0.00,meteohub,2013-12-30 05:19:00,
2013-12-30 00:24:00,26.1,18.9,-100.00,NNW,328,10.0,16.0,74,0.00,,,0.00,meteohub,2013-12-30 05:24:00,
2013-12-30 00:29:00,25.9,18.7,-100.00,NNW,327,11.0,16.0,74,0.00,,,0.00,meteohub,2013-12-30 05:29:00,
2013-12-30 00:34:00,25.9,19.4,-100.00,NW,323,7.0,16.0,76,0.00,,,0.00,meteohub,2013-12-30 05:34:00,
2013-12-30 00:39:00,25.9,19.0,-100.00,NNW,328,9.0,16.0,75,0.00,,,0.00,meteohub,2013-12-30 05:39:00,
2013-12-30 00:44:00,25.9,19.4,-100.00,North,356,10.0,15.0,76,0.00,,,0.00,meteohub,2013-12-30 05:44:00,
2013-12-30 00:49:00,25.9,19.4,-100.00,NW,310,9.0,15.0,76,0.00,,,0.00,meteohub,2013-12-30 05:49:00,
2013-12-30 00:54:00,25.9,19.0,-100.00,NW,310,7.0,15.0,75,0.00,,,0.00,meteohub,2013-12-30 05:54:00,
2013-12-30 00:59:00,25.9,19.0,-100.00,NNW,328,5.0,14.0,75,0.00,,,0.00,meteohub,2013-12-30 05:59:00,
2013-12-30 01:04:00,25.7,19.2,-100.00,NNW,339,6.0,14.0,76,0.00,,,0.00,meteohub,2013-12-30 06:04:00,
2013-12-30 01:09:00,25.5,19.0,-100.00,WNW,300,9.0,14.0,76,0.00,,,0.00,meteohub,2013-12-30 06:09:00,
2013-12-30 01:14:00,25.3,18.5,-100.00,NNW,328,6.0,14.0,75,0.00,,,0.00,meteohub,2013-12-30 06:14:00,
2013-12-30 01:19:00,25.3,18.9,-100.00,WNW,297,6.0,16.0,76,0.00,,,0.00,meteohub,2013-12-30 06:19:00,
2013-12-30 01:24:00,25.3,18.1,-100.00,WNW,300,9.0,16.0,74,0.00,,,0.00,meteohub,2013-12-30 06:24:00,
2013-12-30 01:29:00,25.2,18.7,-100.00,NNW,334,5.0,16.0,76,0.00,,,0.00,meteohub,2013-12-30 06:29:00,
2013-12-30 01:34:00,25.2,18.3,-100.00,NNW,327,7.0,15.0,75,0.00,,,0.00,meteohub,2013-12-30 06:34:00,
2013-12-30 01:39:00,25.2,18.7,-100.00,NW,318,7.0,14.0,76,0.00,,,0.00,meteohub,2013-12-30 06:39:00,
2013-12-30 01:44:00,25.0,18.5,-100.00,NW,316,7.0,14.0,76,0.00,,,0.00,meteohub,2013-12-30 06:44:00,
2013-12-30 01:49:00,25.0,18.1,-100.00,North,355,11.0,18.0,75,0.00,,,0.00,meteohub,2013-12-30 06:49:00,
2013-12-30 01:54:00,24.6,17.8,-100.00,North,351,9.0,18.0,75,0.00,,,0.00,meteohub,2013-12-30 06:54:00,
2013-12-30 01:59:00,24.6,17.6,-100.00,NNW,327,5.0,17.0,74,0.00,,,0.00,meteohub,2013-12-30 06:59:00,
2013-12-30 02:04:00,24.4,17.4,-100.00,NW,321,11.0,17.0,74,0.00,,,0.00,meteohub,2013-12-30 07:04:00,
2013-12-30 02:09:00,24.3,16.9,-100.00,WNW,297,5.0,17.0,73,0.00,,,0.00,meteohub,2013-12-30 07:09:00,
2013-12-30 02:14:00,24.3,16.9,-100.00,WNW,294,12.0,17.0,73,0.00,,,0.00,meteohub,2013-12-30 07:14:00,
2013-12-30 02:19:00,24.1,16.7,-100.00,North,355,11.0,17.0,73,0.00,,,0.00,meteohub,2013-12-30 07:19:00,
2013-12-30 02:24:00,23.9,16.5,-100.00,NW,309,9.0,14.0,73,0.00,,,0.00,meteohub,2013-12-30 07:24:00,
2013-12-30 02:29:00,23.5,15.8,-100.00,WNW,299,13.0,15.0,72,0.00,,,0.00,meteohub,2013-12-30 07:29:00,
2013-12-30 02:34:00,23.4,15.4,-100.00,NW,325,14.0,17.0,71,0.00,,,0.00,meteohub,2013-12-30 07:34:00,
2013-12-30 02:39:00,23.2,15.4,-100.00,WNW,302,6.0,17.0,72,0.00,,,0.00,meteohub,2013-12-30 07:39:00,
2013-12-30 02:44:00,22.8,15.1,-100.00,NNW,339,6.0,17.0,72,0.00,,,0.00,meteohub,2013-12-30 07:44:00,
2013-12-30 02:49:00,22.8,15.1,-100.00,NNW,333,12.0,18.0,72,0.00,,,0.00,meteohub,2013-12-30 07:49:00,
2013-12-30 02:54:00,22.6,14.7,-100.00,NW,322,7.0,18.0,71,0.00,,,0.00,meteohub,2013-12-30 07:54:00,
2013-12-30 02:59:00,22.5,14.7,-100.00,NW,311,13.0,18.0,72,0.00,,,0.00,meteohub,2013-12-30 07:59:00,
2013-12-30 03:04:00,22.3,14.7,-100.00,NW,324,11.0,16.0,72,0.00,,,0.00,meteohub,2013-12-30 08:04:00,
2013-12-30 03:09:00,21.9,14.0,-100.00,NNW,329,9.0,19.0,71,0.00,,,0.00,meteohub,2013-12-30 08:09:00,
2013-12-30 03:14:00,21.7,14.2,-100.00,NNW,335,10.0,19.0,72,0.00,,,0.00,meteohub,2013-12-30 08:14:00,
2013-12-30 03:19:00,21.6,14.0,-100.00,WNW,301,8.0,17.0,72,0.00,,,0.00,meteohub,2013-12-30 08:19:00,
2013-12-30 03:24:00,21.4,13.8,-100.00,NW,314,11.0,17.0,72,0.00,,,0.00,meteohub,2013-12-30 08:24:00,
2013-12-30 03:29:00,21.4,13.8,-100.00,North,355,4.0,17.0,72,0.00,,,0.00,meteohub,2013-12-30 08:29:00,
2013-12-30 03:34:00,21.4,13.5,-100.00,NNW,329,11.0,16.0,71,0.00,,,0.00,meteohub,2013-12-30 08:34:00,
2013-12-30 03:39:00,21.0,13.5,-100.00,NW,317,12.0,14.0,72,0.00,,,0.00,meteohub,2013-12-30 08:39:00,
2013-12-30 03:44:00,21.0,12.7,-100.00,WNW,295,10.0,14.0,70,0.00,,,0.00,meteohub,2013-12-30 08:44:00,
2013-12-30 03:49:00,21.0,13.1,-100.00,NW,322,14.0,15.0,71,0.00,,,0.00,meteohub,2013-12-30 08:49:00,
2013-12-30 03:54:00,21.0,13.1,-100.00,North,6,9.0,17.0,71,0.00,,,0.00,meteohub,2013-12-30 08:54:00,
2013-12-30 03:59:00,21.0,13.5,-100.00,NW,319,4.0,19.0,72,0.00,,,0.00,meteohub,2013-12-30 08:59:00,
2013-12-30 04:05:00,21.0,13.5,-100.00,NNW,329,9.0,19.0,72,0.00,,,0.00,meteohub,2013-12-30 09:05:00,
2013-12-30 04:10:00,21.0,13.8,-100.00,North,357,9.0,19.0,73,0.00,,,0.00,meteohub,2013-12-30 09:10:00,
2013-12-30 04:15:00,21.0,13.1,-100.00,North,354,6.0,13.0,71,0.00,,,0.00,meteohub,2013-12-30 09:15:00,
2013-12-30 04:20:00,21.0,13.5,-100.00,WNW,302,7.0,13.0,72,0.00,,,0.00,meteohub,2013-12-30 09:20:00,
2013-12-30 04:25:00,21.0,13.1,-100.00,NW,325,8.0,13.0,71,0.00,,,0.00,meteohub,2013-12-30 09:25:00,
2013-12-30 04:30:00,21.0,13.1,-100.00,NW,314,6.0,14.0,71,0.00,,,0.00,meteohub,2013-12-30 09:30:00,
2013-12-30 04:35:00,21.0,13.5,-100.00,NNW,329,7.0,15.0,72,0.00,,,0.00,meteohub,2013-12-30 09:35:00,
2013-12-30 04:40:00,21.0,13.1,-100.00,NNW,345,13.0,15.0,71,0.00,,,0.00,meteohub,2013-12-30 09:40:00,
2013-12-30 04:45:00,21.0,12.7,-100.00,WNW,290,12.0,15.0,70,0.00,,,0.00,meteohub,2013-12-30 09:45:00,
2013-12-30 04:50:00,21.0,13.1,-100.00,NW,316,6.0,16.0,71,0.00,,,0.00,meteohub,2013-12-30 09:50:00,
2013-12-30 04:55:00,21.0,13.5,-100.00,NNW,339,9.0,16.0,72,0.00,,,0.00,meteohub,2013-12-30 09:55:00,
2013-12-30 05:00:00,21.0,13.5,-100.00,North,349,5.0,15.0,72,0.00,,,0.00,meteohub,2013-12-30 10:00:00,
2013-12-30 05:05:00,21.0,13.8,-100.00,NNW,338,7.0,13.0,73,0.00,,,0.00,meteohub,2013-12-30 10:05:00,
2013-12-30 05:10:00,21.0,14.0,-100.00,NW,311,5.0,13.0,74,0.00,,,0.00,meteohub,2013-12-30 10:10:00,
2013-12-30 05:15:00,21.0,14.0,-100.00,NW,322,6.0,12.0,74,0.00,,,0.00,meteohub,2013-12-30 10:15:00,
2013-12-30 05:20:00,21.0,14.0,-100.00,NW,321,9.0,10.0,74,0.00,,,0.00,meteohub,2013-12-30 10:20:00,
2013-12-30 05:25:00,21.0,14.0,-100.00,WNW,292,6.0,11.0,74,0.00,,,0.00,meteohub,2013-12-30 10:25:00,
2013-12-30 05:30:00,21.0,13.8,-100.00,NW,319,6.0,11.0,73,0.00,,,0.00,meteohub,2013-12-30 10:30:00,
2013-12-30 05:35:00,21.0,13.8,-100.00,North,1,9.0,13.0,73,0.00,,,0.00,meteohub,2013-12-30 10:35:00,
2013-12-30 05:40:00,20.8,13.3,-100.00,NW,318,4.0,13.0,72,0.00,,,0.00,meteohub,2013-12-30 10:40:00,
2013-12-30 05:45:00,20.8,13.8,-100.00,NNW,328,8.0,13.0,74,0.00,,,0.00,meteohub,2013-12-30 10:45:00,
2013-12-30 05:50:00,20.8,13.6,-100.00,NW,317,5.0,12.0,73,0.00,,,0.00,meteohub,2013-12-30 10:50:00,
2013-12-30 05:55:00,20.8,13.8,-100.00,NNW,328,8.0,13.0,74,0.00,,,0.00,meteohub,2013-12-30 10:55:00,
2013-12-30 06:00:00,20.8,14.2,-100.00,NW,308,6.0,13.0,75,0.00,,,0.00,meteohub,2013-12-30 11:00:00,
2013-12-30 06:05:00,20.8,14.2,-100.00,NNW,329,8.0,13.0,75,0.00,,,0.00,meteohub,2013-12-30 11:05:00,
2013-12-30 06:10:00,21.0,14.7,-100.00,NW,318,9.0,11.0,76,0.00,,,0.00,meteohub,2013-12-30 11:10:00,
2013-12-30 06:15:00,20.8,14.2,-100.00,NNW,332,7.0,11.0,75,0.00,,,0.00,meteohub,2013-12-30 11:15:00,
2013-12-30 06:20:00,20.7,13.6,-100.00,NW,323,6.0,12.0,74,0.00,,,0.00,meteohub,2013-12-30 11:20:00,
2013-12-30 06:26:00,20.5,13.5,-100.00,NW,316,4.0,13.0,74,0.00,,,0.00,meteohub,2013-12-30 11:26:00,
2013-12-30 06:31:00,20.5,13.8,-100.00,NNW,334,4.0,13.0,75,0.00,,,0.00,meteohub,2013-12-30 11:31:00,
2013-12-30 06:36:00,20.3,14.0,-100.00,NW,310,7.0,13.0,76,0.00,,,0.00,meteohub,2013-12-30 11:36:00,
2013-12-30 06:41:00,20.1,13.5,-100.00,NW,316,4.0,11.0,75,0.00,,,0.00,meteohub,2013-12-30 11:41:00,
2013-12-30 06:46:00,20.1,13.1,-100.00,NW,319,5.0,11.0,74,0.00,,,0.00,meteohub,2013-12-30 11:46:00,
2013-12-30 06:51:00,19.9,13.3,-100.00,NNW,346,7.0,11.0,75,0.00,,,0.00,meteohub,2013-12-30 11:51:00,
2013-12-30 06:56:00,19.9,13.6,-100.00,NNW,333,6.0,10.0,76,0.00,,,0.00,meteohub,2013-12-30 11:56:00,
2013-12-30 07:01:00,19.9,13.3,-100.00,North,349,5.0,10.0,75,0.00,,,0.00,meteohub,2013-12-30 12:01:00,
2013-12-30 07:06:00,19.9,13.3,-100.00,NW,317,8.0,11.0,75,0.00,,,0.00,meteohub,2013-12-30 12:06:00,
2013-12-30 07:11:00,19.8,12.7,-100.00,NW,326,3.0,11.0,74,0.00,,,0.00,meteohub,2013-12-30 12:11:00,
2013-12-30 07:16:00,19.8,13.1,-100.00,NNE,12,6.0,11.0,75,0.00,,,0.00,meteohub,2013-12-30 12:16:00,
2013-12-30 07:21:00,19.6,12.6,-100.00,NW,322,6.0,12.0,74,0.00,,,0.00,meteohub,2013-12-30 12:21:00,
2013-12-30 07:26:00,19.6,12.9,-100.00,NNW,328,5.0,12.0,75,0.00,,,0.00,meteohub,2013-12-30 12:26:00,
2013-12-30 07:31:00,19.4,12.7,-100.00,North,355,3.0,13.0,75,0.00,,,0.00,meteohub,2013-12-30 12:31:00,
2013-12-30 07:36:00,19.4,13.1,-100.00,NW,315,3.0,13.0,76,0.00,,,0.00,meteohub,2013-12-30 12:36:00,
2013-12-30 07:41:00,19.4,12.7,-100.00,NW,321,4.0,13.0,75,0.00,,,0.00,meteohub,2013-12-30 12:41:00,
2013-12-30 07:46:00,19.4,13.1,-100.00,NW,324,7.0,10.0,76,0.00,,,0.00,meteohub,2013-12-30 12:46:00,
2013-12-30 07:51:00,19.4,12.6,-100.00,NNW,330,5.0,8.0,74,0.00,,,0.00,meteohub,2013-12-30 12:51:00,
2013-12-30 07:56:00,19.4,12.7,-100.00,NNW,335,3.0,13.0,75,0.00,,,0.00,meteohub,2013-12-30 12:56:00,
2013-12-30 08:01:00,19.2,12.4,-100.00,NNW,336,12.0,13.0,74,0.00,,,0.00,meteohub,2013-12-30 13:01:00,
2013-12-30 08:06:00,19.2,12.6,-100.00,NNW,340,5.0,12.0,75,0.00,,,0.00,meteohub,2013-12-30 13:06:00,
2013-12-30 08:11:00,19.2,12.6,-100.00,NNW,329,6.0,12.0,75,0.00,,,0.00,meteohub,2013-12-30 13:11:00,
2013-12-30 08:16:00,19.2,12.4,-100.00,NW,326,7.0,12.0,74,0.00,,,0.00,meteohub,2013-12-30 13:16:00,
2013-12-30 08:21:00,19.2,12.4,-100.00,NNW,342,13.0,13.0,74,0.00,,,0.00,meteohub,2013-12-30 13:21:00,
2013-12-30 08:26:00,19.4,12.6,-100.00,NNW,338,10.0,13.0,74,0.00,,,0.00,meteohub,2013-12-30 13:26:00,
2013-12-30 08:31:00,19.2,12.4,-100.00,NW,317,6.0,13.0,74,0.00,,,0.00,meteohub,2013-12-30 13:31:00,
2013-12-30 08:36:00,19.2,12.4,-100.00,NNW,335,3.0,13.0,74,0.00,,,0.00,meteohub,2013-12-30 13:36:00,
2013-12-30 08:41:00,19.2,11.7,-100.00,NW,313,8.0,11.0,72,0.00,,,0.00,meteohub,2013-12-30 13:41:00,
2013-12-30 08:46:00,19.2,11.3,-100.00,NW,315,9.0,13.0,71,0.00,,,0.00,meteohub,2013-12-30 13:46:00,
2013-12-30 08:51:00,19.2,11.3,-100.00,North,7,9.0,13.0,71,0.00,,,0.00,meteohub,2013-12-30 13:51:00,
2013-12-30 08:56:00,19.4,11.5,-100.00,NNW,340,5.0,13.0,71,0.00,,,0.00,meteohub,2013-12-30 13:56:00,
2013-12-30 09:01:00,19.6,11.7,-100.00,North,349,5.0,12.0,71,0.00,,,0.00,meteohub,2013-12-30 14:01:00,
2013-12-30 09:06:00,19.6,10.8,-100.00,WNW,303,6.0,13.0,68,0.00,,,0.00,meteohub,2013-12-30 14:06:00,
2013-12-30 09:11:00,19.6,11.5,-100.00,NW,315,7.0,13.0,70,0.00,,,0.00,meteohub,2013-12-30 14:11:00,
2013-12-30 09:16:00,19.4,10.9,-100.00,North,350,4.0,11.0,69,0.00,,,0.00,meteohub,2013-12-30 14:16:00,
2013-12-30 09:21:00,19.2,10.8,-100.00,NNW,328,4.0,10.0,69,0.00,,,0.00,meteohub,2013-12-30 14:21:00,
2013-12-30 09:26:00,19.4,10.9,-100.00,WNW,285,4.0,9.0,69,0.00,,,0.00,meteohub,2013-12-30 14:26:00,
2013-12-30 09:31:00,19.6,11.1,-100.00,NNW,331,9.0,10.0,69,0.00,,,0.00,meteohub,2013-12-30 14:31:00,
2013-12-30 09:36:00,19.9,11.7,-100.00,NW,322,3.0,11.0,70,0.00,,,0.00,meteohub,2013-12-30 14:36:00,
2013-12-30 09:41:00,19.9,11.5,-100.00,NW,314,7.0,11.0,69,0.00,,,0.00,meteohub,2013-12-30 14:41:00,
2013-12-30 09:46:00,19.9,11.7,-100.00,NW,313,7.0,11.0,70,0.00,,,0.00,meteohub,2013-12-30 14:46:00,
2013-12-30 09:51:00,19.9,11.7,-100.00,NNW,331,7.0,11.0,70,0.00,,,0.00,meteohub,2013-12-30 14:51:00,
2013-12-30 09:56:00,19.9,11.5,-100.00,NW,321,5.0,11.0,69,0.00,,,0.00,meteohub,2013-12-30 14:56:00,
2013-12-30 10:01:00,19.9,11.1,-100.00,NW,314,4.0,11.0,68,0.00,,,0.00,meteohub,2013-12-30 15:01:00,
2013-12-30 10:07:00,19.9,11.1,-100.00,NW,319,5.0,11.0,68,0.00,,,0.00,meteohub,2013-12-30 15:07:00,
2013-12-30 10:12:00,19.9,10.8,-100.00,NW,306,8.0,13.0,67,0.00,,,0.00,meteohub,2013-12-30 15:12:00,
2013-12-30 10:17:00,19.8,10.6,-100.00,NNE,23,3.0,13.0,67,0.00,,,0.00,meteohub,2013-12-30 15:17:00,
2013-12-30 10:22:00,19.8,10.9,-100.00,NNW,333,9.0,12.0,68,0.00,,,0.00,meteohub,2013-12-30 15:22:00,
2013-12-30 10:27:00,19.8,11.3,-100.00,NW,321,4.0,12.0,69,0.00,,,0.00,meteohub,2013-12-30 15:27:00,
2013-12-30 10:32:00,19.8,10.6,-100.00,NW,309,4.0,13.0,67,0.00,,,0.00,meteohub,2013-12-30 15:32:00,
2013-12-30 10:37:00,19.8,11.3,-100.00,NNW,338,8.0,13.0,69,0.00,,,0.00,meteohub,2013-12-30 15:37:00,
2013-12-30 10:42:00,19.8,10.9,-100.00,WNW,302,4.0,13.0,68,0.00,,,0.00,meteohub,2013-12-30 15:42:00,
2013-12-30 10:47:00,20.1,11.7,-100.00,North,358,9.0,11.0,69,0.00,,,0.00,meteohub,2013-12-30 15:47:00,
2013-12-30 10:52:00,19.9,10.8,-100.00,NW,322,9.0,12.0,67,0.00,,,0.00,meteohub,2013-12-30 15:52:00,
2013-12-30 10:57:00,19.9,10.8,-100.00,NNW,340,10.0,14.0,67,0.00,,,0.00,meteohub,2013-12-30 15:57:00,
2013-12-30 11:02:00,19.9,10.4,-100.00,WNW,302,7.0,14.0,66,0.00,,,0.00,meteohub,2013-12-30 16:02:00,
2013-12-30 11:07:00,20.1,10.6,-100.00,NW,321,4.0,14.0,66,0.00,,,0.00,meteohub,2013-12-30 16:07:00,
2013-12-30 11:12:00,20.5,11.3,-100.00,NW,307,7.0,11.0,67,0.00,,,0.00,meteohub,2013-12-30 16:12:00,
2013-12-30 11:17:00,20.3,10.4,-100.00,NW,308,6.0,13.0,65,0.00,,,0.00,meteohub,2013-12-30 16:17:00,
2013-12-30 11:22:00,20.1,10.6,-100.00,NW,323,9.0,13.0,66,0.00,,,0.00,meteohub,2013-12-30 16:22:00,
2013-12-30 11:27:00,19.9,10.4,-100.00,NNW,342,4.0,13.0,66,0.00,,,0.00,meteohub,2013-12-30 16:27:00,
2013-12-30 11:32:00,19.9,11.1,-100.00,NNW,336,5.0,10.0,68,0.00,,,0.00,meteohub,2013-12-30 16:32:00,
2013-12-30 11:37:00,20.1,10.9,-100.00,NNW,331,11.0,13.0,67,0.00,,,0.00,meteohub,2013-12-30 16:37:00,
2013-12-30 11:42:00,20.1,10.9,-100.00,NNW,340,7.0,13.0,67,0.00,,,0.00,meteohub,2013-12-30 16:42:00,
2013-12-30 11:47:00,19.9,10.8,-100.00,NW,304,5.0,13.0,67,0.00,,,0.00,meteohub,2013-12-30 16:47:00,
2013-12-30 11:52:00,20.1,10.9,-100.00,WNW,297,4.0,13.0,67,0.00,,,0.00,meteohub,2013-12-30 16:52:00,
2013-12-30 11:57:00,19.9,10.0,-100.00,NW,314,5.0,12.0,65,0.00,,,0.00,meteohub,2013-12-30 16:57:00,
2013-12-30 12:02:00,19.9,10.4,-100.00,NW,305,9.0,12.0,66,0.00,,,0.00,meteohub,2013-12-30 17:02:00,
2013-12-30 12:07:00,19.8,10.2,-100.00,NNW,332,9.0,14.0,66,0.00,,,0.00,meteohub,2013-12-30 17:07:00,
2013-12-30 12:12:00,19.8,10.2,-100.00,NNW,330,5.0,14.0,66,0.00,,,0.00,meteohub,2013-12-30 17:12:00,
2013-12-30 12:17:00,19.8,10.2,-100.00,NNW,334,7.0,15.0,66,0.00,,,0.00,meteohub,2013-12-30 17:17:00,
2013-12-30 12:22:00,19.6,10.0,-100.00,NW,320,10.0,15.0,66,0.00,,,0.00,meteohub,2013-12-30 17:22:00,
2013-12-30 12:27:00,19.8,10.2,-100.00,NNE,13,8.0,15.0,66,0.00,,,0.00,meteohub,2013-12-30 17:27:00,
2013-12-30 12:32:00,19.8,10.2,-100.00,NW,316,5.0,13.0,66,0.00,,,0.00,meteohub,2013-12-30 17:32:00,
2013-12-30 12:37:00,19.8,10.6,-100.00,North,352,9.0,13.0,67,0.00,,,0.00,meteohub,2013-12-30 17:37:00,
2013-12-30 12:43:00,19.9,10.0,-100.00,NNW,338,5.0,13.0,65,0.00,,,0.00,meteohub,2013-12-30 17:43:00,
2013-12-30 12:48:00,19.9,10.0,-100.00,North,352,6.0,13.0,65,0.00,,,0.00,meteohub,2013-12-30 17:48:00,
2013-12-30 12:53:00,20.1,10.2,-100.00,WNW,302,4.0,13.0,65,0.00,,,0.00,meteohub,2013-12-30 17:53:00,
2013-12-30 12:58:00,20.7,10.4,-100.00,North,11,6.0,14.0,64,0.00,,,0.00,meteohub,2013-12-30 17:58:00,
2013-12-30 13:03:00,20.5,9.9,-100.00,NW,307,7.0,14.0,63,0.00,,,0.00,meteohub,2013-12-30 18:03:00,
2013-12-30 13:08:00,20.5,10.2,-100.00,WNW,300,3.0,12.0,64,0.00,,,0.00,meteohub,2013-12-30 18:08:00,
2013-12-30 13:13:00,20.8,10.6,-100.00,NW,317,4.0,12.0,64,0.00,,,0.00,meteohub,2013-12-30 18:13:00,
2013-12-30 13:18:00,20.8,10.6,-100.00,North,351,8.0,10.0,64,0.00,,,0.00,meteohub,2013-12-30 18:18:00,
2013-12-30 13:23:00,20.8,10.6,-100.00,NNW,347,5.0,11.0,64,0.00,,,0.00,meteohub,2013-12-30 18:23:00,
2013-12-30 13:28:00,20.7,10.4,-100.00,WNW,301,8.0,11.0,64,0.00,,,0.00,meteohub,2013-12-30 18:28:00,
2013-12-30 13:33:00,19.9,9.3,-100.00,WNW,300,3.0,11.0,63,0.00,,,0.00,meteohub,2013-12-30 18:33:00,
2013-12-30 13:38:00,19.8,8.8,-100.00,NNW,333,8.0,11.0,62,0.00,,,0.00,meteohub,2013-12-30 18:38:00,
2013-12-30 13:43:00,19.8,9.1,-100.00,NNW,328,6.0,11.0,63,0.00,,,0.00,meteohub,2013-12-30 18:43:00,
2013-12-30 13:48:00,19.9,10.0,-100.00,NNW,336,4.0,11.0,65,0.00,,,0.00,meteohub,2013-12-30 18:48:00,
2013-12-30 13:53:00,20.1,9.9,-100.00,NNW,330,5.0,12.0,64,0.00,,,0.00,meteohub,2013-12-30 18:53:00,
2013-12-30 13:58:00,19.9,9.3,-100.00,NW,314,7.0,12.0,63,0.00,,,0.00,meteohub,2013-12-30 18:58:00,
2013-12-30 14:03:00,19.8,9.5,-100.00,NNW,328,6.0,12.0,64,0.00,,,0.00,meteohub,2013-12-30 19:03:00,
2013-12-30 14:08:00,19.8,8.8,-100.00,NNW,336,5.0,9.0,62,0.00,,,0.00,meteohub,2013-12-30 19:08:00,
2013-12-30 14:13:00,19.9,9.7,-100.00,NNW,347,2.0,10.0,64,0.00,,,0.00,meteohub,2013-12-30 19:13:00,
2013-12-30 14:18:00,20.3,10.0,-100.00,NW,325,7.0,10.0,64,0.00,,,0.00,meteohub,2013-12-30 19:18:00,
2013-12-30 14:23:00,19.9,9.0,-100.00,NW,316,2.0,10.0,62,0.00,,,0.00,meteohub,2013-12-30 19:23:00,
2013-12-30 14:28:00,19.6,9.0,-100.00,NNW,336,3.0,10.0,63,0.00,,,0.00,meteohub,2013-12-30 19:28:00,
2013-12-30 14:33:00,19.4,9.1,-100.00,NNW,336,6.0,10.0,64,0.00,,,0.00,meteohub,2013-12-30 19:33:00,
2013-12-30 14:38:00,19.8,9.1,-100.00,NNW,330,2.0,8.0,63,0.00,,,0.00,meteohub,2013-12-30 19:38:00,
2013-12-30 14:43:00,19.9,9.3,-100.00,NW,309,5.0,12.0,63,0.00,,,0.00,meteohub,2013-12-30 19:43:00,
2013-12-30 14:48:00,20.1,9.9,-100.00,North,354,6.0,12.0,64,0.00,,,0.00,meteohub,2013-12-30 19:48:00,
2013-12-30 14:53:00,20.5,9.5,-100.00,NW,316,4.0,12.0,62,0.00,,,0.00,meteohub,2013-12-30 19:53:00,
2013-12-30 14:58:00,20.1,8.4,-100.00,NW,316,3.0,7.0,60,0.00,,,0.00,meteohub,2013-12-30 19:58:00,
2013-12-30 15:03:00,20.1,9.1,-100.00,NW,311,4.0,7.0,62,0.00,,,0.00,meteohub,2013-12-30 20:03:00,
2013-12-30 15:08:00,20.1,9.1,-100.00,NW,321,4.0,8.0,62,0.00,,,0.00,meteohub,2013-12-30 20:08:00,
2013-12-30 15:13:00,20.1,9.1,-100.00,NNW,334,2.0,8.0,62,0.00,,,0.00,meteohub,2013-12-30 20:13:00,
2013-12-30 15:18:00,20.5,9.5,-100.00,NNW,342,5.0,8.0,62,0.00,,,0.00,meteohub,2013-12-30 20:18:00,
2013-12-30 15:23:00,20.7,9.3,-100.00,NNE,15,2.0,8.0,61,0.00,,,0.00,meteohub,2013-12-30 20:23:00,
2013-12-30 15:28:00,20.8,9.9,-100.00,NNW,335,5.0,8.0,62,0.00,,,0.00,meteohub,2013-12-30 20:28:00,
2013-12-30 15:33:00,20.8,10.2,-100.00,NNW,347,4.0,7.0,63,0.00,,,0.00,meteohub,2013-12-30 20:33:00,
2013-12-30 15:38:00,20.5,9.5,-100.00,NNW,340,5.0,7.0,62,0.00,,,0.00,meteohub,2013-12-30 20:38:00,
2013-12-30 15:43:00,20.1,9.1,-100.00,NW,305,3.0,7.0,62,0.00,,,0.00,meteohub,2013-12-30 20:43:00,
2013-12-30 15:48:00,19.8,9.1,-100.00,NW,314,2.0,7.0,63,0.00,,,0.00,meteohub,2013-12-30 20:48:00,
2013-12-30 15:53:00,19.6,9.0,-100.00,North,358,1.0,7.0,63,0.00,,,0.00,meteohub,2013-12-30 20:53:00,
2013-12-30 15:59:00,19.6,9.7,-100.00,NW,314,3.0,6.0,65,0.00,,,0.00,meteohub,2013-12-30 20:59:00,
2013-12-30 16:04:00,19.2,9.0,-100.00,NW,324,5.0,6.0,64,0.00,,,0.00,meteohub,2013-12-30 21:04:00,
2013-12-30 16:09:00,19.2,9.0,-100.00,NNW,336,2.0,6.0,64,0.00,,,0.00,meteohub,2013-12-30 21:09:00,
2013-12-30 16:14:00,19.0,9.1,-100.00,NNW,343,2.0,6.0,65,0.00,,,0.00,meteohub,2013-12-30 21:14:00,
2013-12-30 16:19:00,19.0,9.5,-100.00,NNW,327,1.0,6.0,66,0.00,,,0.00,meteohub,2013-12-30 21:19:00,
2013-12-30 16:24:00,18.9,9.3,-100.00,North,1,3.0,7.0,66,0.00,,,0.00,meteohub,2013-12-30 21:24:00,
2013-12-30 16:29:00,18.7,9.1,-100.00,NNW,328,1.0,7.0,66,0.00,,,0.00,meteohub,2013-12-30 21:29:00,
2013-12-30 16:34:00,18.5,9.3,-100.00,NNW,348,2.0,6.0,67,0.00,,,0.00,meteohub,2013-12-30 21:34:00,
2013-12-30 16:39:00,18.5,9.0,-100.00,NNW,347,3.0,6.0,66,0.00,,,0.00,meteohub,2013-12-30 21:39:00,
2013-12-30 16:44:00,18.5,9.7,-100.00,NW,326,1.0,5.0,68,0.00,,,0.00,meteohub,2013-12-30 21:44:00,
2013-12-30 16:49:00,18.3,9.1,-100.00,NW,323,0.0,3.0,67,0.00,,,0.00,meteohub,2013-12-30 21:49:00,
2013-12-30 16:55:00,18.3,9.1,-100.00,North,352,2.0,3.0,67,0.00,,,0.00,meteohub,2013-12-30 21:55:00,
2013-12-30 16:59:00,18.3,9.1,-100.00,WNW,303,0.0,3.0,67,0.00,,,0.00,meteohub,2013-12-30 21:59:00,
2013-12-30 17:05:00,18.3,9.5,-100.00,NW,314,1.0,3.0,68,0.00,,,0.00,meteohub,2013-12-30 22:05:00,
2013-12-30 17:10:00,18.1,9.0,-100.00,NNE,15,0.0,3.0,67,0.00,,,0.00,meteohub,2013-12-30 22:10:00,
2013-12-30 17:15:00,18.1,9.0,-100.00,NW,321,0.0,2.0,67,0.00,,,0.00,meteohub,2013-12-30 22:15:00,
2013-12-30 17:20:00,18.3,9.5,-100.00,NW,319,0.0,1.0,68,0.00,,,0.00,meteohub,2013-12-30 22:20:00,
2013-12-30 17:25:00,18.3,9.0,-100.00,NW,321,0.0,1.0,66,0.00,,,0.00,meteohub,2013-12-30 22:25:00,
2013-12-30 17:30:00,18.5,9.3,-100.00,NW,321,0.0,1.0,67,0.00,,,0.00,meteohub,2013-12-30 22:30:00,
2013-12-30 17:35:00,18.5,9.0,-100.00,NW,321,0.0,1.0,66,0.00,,,0.00,meteohub,2013-12-30 22:35:00,
2013-12-30 17:40:00,18.5,9.0,-100.00,NW,321,0.0,1.0,66,0.00,,,0.00,meteohub,2013-12-30 22:40:00,
2013-12-30 17:45:00,18.7,9.1,-100.00,NW,323,0.0,1.0,66,0.00,,,0.00,meteohub,2013-12-30 22:45:00,
2013-12-30 17:50:00,18.7,9.1,-100.00,WNW,290,0.0,2.0,66,0.00,,,0.00,meteohub,2013-12-30 22:50:00,
2013-12-30 17:55:00,18.7,9.5,-100.00,NW,304,1.0,2.0,67,0.00,,,0.00,meteohub,2013-12-30 22:55:00,
2013-12-30 18:00:00,18.7,9.9,-100.00,West,281,0.0,2.0,68,0.00,,,0.00,meteohub,2013-12-30 23:00:00,
2013-12-30 18:05:00,18.5,10.0,-100.00,West,280,0.0,2.0,69,0.00,,,0.00,meteohub,2013-12-30 23:05:00,
2013-12-30 18:10:00,18.5,10.4,-100.00,West,279,0.0,2.0,70,0.00,,,0.00,meteohub,2013-12-30 23:10:00,
2013-12-30 18:15:00,18.3,9.9,-100.00,West,279,0.0,1.0,69,0.00,,,0.00,meteohub,2013-12-30 23:15:00,
2013-12-30 18:20:00,18.1,10.0,-100.00,West,279,0.0,1.0,70,0.00,,,0.00,meteohub,2013-12-30 23:20:00,
2013-12-30 18:25:00,18.1,10.4,-100.00,WSW,253,0.0,1.0,71,0.00,,,0.00,meteohub,2013-12-30 23:25:00,
2013-12-30 18:30:00,18.3,10.8,-100.00,SW,234,0.0,1.0,72,0.00,,,0.00,meteohub,2013-12-30 23:30:00,
2013-12-30 18:35:00,18.3,10.8,-100.00,SW,233,0.0,2.0,72,0.00,,,0.00,meteohub,2013-12-30 23:35:00,
2013-12-30 18:40:00,18.3,10.6,-100.00,SSW,207,0.0,2.0,71,0.00,,,0.00,meteohub,2013-12-30 23:40:00,
2013-12-30 18:45:00,18.3,10.6,-100.00,SSW,206,0.0,2.0,71,0.00,,,0.00,meteohub,2013-12-30 23:45:00,
2013-12-30 18:50:00,18.3,10.8,-100.00,West,274,0.0,2.0,72,0.00,,,0.00,meteohub,2013-12-30 23:50:00,
2013-12-30 18:55:00,18.3,10.8,-100.00,WSW,254,0.0,1.0,72,0.00,,,0.00,meteohub,2013-12-30 23:55:00,
2013-12-30 19:00:00,18.3,10.6,-100.00,SW,233,0.0,1.0,71,0.00,,,0.00,meteohub,2013-12-31 00:00:00,
2013-12-30 19:05:00,18.5,10.9,-100.00,WSW,245,0.0,1.0,72,0.00,,,0.00,meteohub,2013-12-31 00:05:00,
2013-12-30 19:10:00,18.3,10.6,-100.00,NW,308,0.0,1.0,71,0.00,,,0.00,meteohub,2013-12-31 00:10:00,
2013-12-30 19:15:00,18.5,11.7,-100.00,WNW,300,0.0,2.0,74,0.00,,,0.00,meteohub,2013-12-31 00:15:00,
2013-12-30 19:20:00,18.5,11.7,-100.00,North,352,0.0,2.0,74,0.00,,,0.00,meteohub,2013-12-31 00:20:00,
2013-12-30 19:25:00,18.3,11.1,-100.00,NNW,348,1.0,2.0,73,0.00,,,0.00,meteohub,2013-12-31 00:25:00,
2013-12-30 19:30:00,18.3,11.7,-100.00,NNW,335,1.0,2.0,75,0.00,,,0.00,meteohub,2013-12-31 00:30:00,
2013-12-30 19:35:00,18.3,11.7,-100.00,North,11,1.0,2.0,75,0.00,,,0.00,meteohub,2013-12-31 00:35:00,
2013-12-30 19:40:00,18.1,11.5,-100.00,NNE,20,0.0,2.0,75,0.00,,,0.00,meteohub,2013-12-31 00:40:00,
2013-12-30 19:45:00,18.1,11.8,-100.00,NE,42,0.0,2.0,76,0.00,,,0.00,meteohub,2013-12-31 00:45:00,
2013-12-30 19:50:00,18.0,12.0,-100.00,North,7,1.0,1.0,77,0.00,,,0.00,meteohub,2013-12-31 00:50:00,
2013-12-30 19:55:00,18.0,12.2,-100.00,NE,55,1.0,2.0,78,0.00,,,0.00,meteohub,2013-12-31 00:55:00,
2013-12-30 20:00:00,18.1,12.4,-100.00,NE,48,0.0,2.0,78,0.00,,,0.00,meteohub,2013-12-31 01:00:00,
2013-12-30 20:05:00,18.1,12.4,-100.00,NNE,29,0.0,3.0,78,0.00,,,0.00,meteohub,2013-12-31 01:05:00,
2013-12-30 20:10:00,18.1,12.4,-100.00,North,357,0.0,3.0,78,0.00,,,0.00,meteohub,2013-12-31 01:10:00,
2013-12-30 20:15:00,18.3,12.4,-100.00,North,355,0.0,3.0,77,0.00,,,0.00,meteohub,2013-12-31 01:15:00,
2013-12-30 20:20:00,18.3,12.4,-100.00,North,11,1.0,2.0,77,0.00,,,0.00,meteohub,2013-12-31 01:20:00,
2013-12-30 20:25:00,18.3,12.4,-100.00,North,8,0.0,2.0,77,0.00,,,0.00,meteohub,2013-12-31 01:25:00,
2013-12-30 20:30:00,18.5,12.6,-100.00,North,10,0.0,1.0,77,0.00,,,0.00,meteohub,2013-12-31 01:30:00,
2013-12-30 20:35:00,18.5,12.2,-100.00,NNE,13,0.0,1.0,76,0.00,,,0.00,meteohub,2013-12-31 01:35:00,
2013-12-30 20:40:00,18.7,12.4,-100.00,NE,34,0.0,2.0,76,0.00,,,0.00,meteohub,2013-12-31 01:40:00,
2013-12-30 20:45:00,18.7,12.7,-100.00,NE,34,0.0,2.0,77,0.00,,,0.00,meteohub,2013-12-31 01:45:00,
2013-12-30 20:50:00,18.7,12.7,-100.00,SW,233,0.0,2.0,77,0.00,,,0.00,meteohub,2013-12-31 01:50:00,
2013-12-30 20:55:00,18.9,12.9,-100.00,West,266,0.0,1.0,77,0.00,,,0.00,meteohub,2013-12-31 01:55:00,
2013-12-30 21:00:00,18.9,12.6,-100.00,South,181,0.0,1.0,76,0.00,,,0.00,meteohub,2013-12-31 02:00:00,
2013-12-30 21:05:00,18.9,12.6,-100.00,SSW,203,0.0,1.0,76,0.00,,,0.00,meteohub,2013-12-31 02:05:00,
2013-12-30 21:10:00,18.9,12.6,-100.00,SSW,197,0.0,2.0,76,0.00,,,0.00,meteohub,2013-12-31 02:10:00,
2013-12-30 21:15:00,18.9,12.6,-100.00,South,176,0.0,2.0,76,0.00,,,0.00,meteohub,2013-12-31 02:15:00,
2013-12-30 21:20:00,18.9,12.6,-100.00,South,174,0.0,2.0,76,0.00,,,0.00,meteohub,2013-12-31 02:20:00,
2013-12-30 21:25:00,18.9,12.6,-100.00,WSW,240,0.0,1.0,76,0.00,,,0.00,meteohub,2013-12-31 02:25:00,
2013-12-30 21:30:00,18.9,12.2,-100.00,SSW,204,0.0,2.0,75,0.00,,,0.00,meteohub,2013-12-31 02:30:00,
2013-12-30 21:35:00,18.9,12.2,-100.00,SW,221,1.0,2.0,75,0.00,,,0.00,meteohub,2013-12-31 02:35:00,
2013-12-30 21:40:00,18.9,11.7,-100.00,WSW,237,0.0,2.0,73,0.00,,,0.00,meteohub,2013-12-31 02:40:00,
2013-12-30 21:45:00,18.9,11.3,-100.00,SW,233,0.0,3.0,72,0.00,,,0.00,meteohub,2013-12-31 02:45:00,
2013-12-30 21:50:00,19.0,10.9,-100.00,SW,225,0.0,3.0,70,0.00,,,0.00,meteohub,2013-12-31 02:50:00,
2013-12-30 21:55:00,19.0,11.1,-100.00,South,170,1.0,3.0,71,0.00,,,0.00,meteohub,2013-12-31 02:55:00,
2013-12-30 22:00:00,19.0,11.1,-100.00,SSE,150,0.0,3.0,71,0.00,,,0.00,meteohub,2013-12-31 03:00:00,
2013-12-30 22:05:00,19.2,11.3,-100.00,SSE,161,0.0,3.0,71,0.00,,,0.00,meteohub,2013-12-31 03:05:00,
2013-12-30 22:10:00,19.2,11.7,-100.00,SE,131,0.0,3.0,72,0.00,,,0.00,meteohub,2013-12-31 03:10:00,
2013-12-30 22:16:00,19.2,11.3,-100.00,SSW,195,1.0,3.0,71,0.00,,,0.00,meteohub,2013-12-31 03:16:00,
2013-12-30 22:21:00,19.2,11.1,-100.00,South,177,1.0,2.0,70,0.00,,,0.00,meteohub,2013-12-31 03:21:00,
2013-12-30 22:25:00,19.2,11.1,-100.00,SSE,159,4.0,4.0,70,0.00,,,0.00,meteohub,2013-12-31 03:25:00,
2013-12-30 22:31:00,19.2,11.1,-100.00,SW,214,2.0,4.0,70,0.00,,,0.00,meteohub,2013-12-31 03:31:00,
2013-12-30 22:35:00,19.2,11.3,-100.00,SSE,161,3.0,5.0,71,0.00,,,0.00,meteohub,2013-12-31 03:35:00,
2013-12-30 22:41:00,19.2,11.3,-100.00,SW,224,2.0,5.0,71,0.00,,,0.00,meteohub,2013-12-31 03:41:00,
2013-12-30 22:46:00,19.2,11.3,-100.00,South,176,1.0,5.0,71,0.00,,,0.00,meteohub,2013-12-31 03:46:00,
2013-12-30 22:51:00,19.2,11.3,-100.00,SSE,158,0.0,4.0,71,0.00,,,0.00,meteohub,2013-12-31 03:51:00,
2013-12-30 22:56:00,19.2,11.3,-100.00,ESE,109,0.0,4.0,71,0.00,,,0.00,meteohub,2013-12-31 03:56:00,
2013-12-30 23:01:00,19.2,11.3,-100.00,SE,144,2.0,3.0,71,0.00,,,0.00,meteohub,2013-12-31 04:01:00,
2013-12-30 23:06:00,19.2,11.3,-100.00,SSE,149,1.0,3.0,71,0.00,,,0.00,meteohub,2013-12-31 04:06:00,
2013-12-30 23:11:00,19.2,11.7,-100.00,South,174,1.0,3.0,72,0.00,,,0.00,meteohub,2013-12-31 04:11:00,
2013-12-30 23:16:00,19.2,11.7,-100.00,South,188,2.0,3.0,72,0.00,,,0.00,meteohub,2013-12-31 04:16:00,
2013-12-30 23:21:00,19.2,11.7,-100.00,SW,214,2.0,4.0,72,0.00,,,0.00,meteohub,2013-12-31 04:21:00,
2013-12-30 23:26:00,19.2,11.7,-100.00,SSW,199,2.0,4.0,72,0.00,,,0.00,meteohub,2013-12-31 04:26:00,
2013-12-30 23:31:00,19.2,12.0,-100.00,SSE,160,3.0,5.0,73,0.00,,,0.00,meteohub,2013-12-31 04:31:00,
2013-12-30 23:36:00,19.2,12.0,-100.00,South,188,1.0,5.0,73,0.00,,,0.00,meteohub,2013-12-31 04:36:00,
2013-12-30 23:41:00,19.4,12.2,-100.00,SSW,208,1.0,5.0,73,0.00,,,0.00,meteohub,2013-12-31 04:41:00,
2013-12-30 23:44:00,19.4,12.2,-100.00,SSW,198,3.0,4.0,73,0.00,,,0.00,meteohub,2013-12-31 04:44:00,
2013-12-30 23:49:00,19.4,12.2,-100.00,SW,223,2.0,4.0,73,0.00,,,0.00,meteohub,2013-12-31 04:49:00,
2013-12-30 23:54:00,19.4,12.2,-100.00,SSE,153,2.0,4.0,73,0.00,,,0.00,meteohub,2013-12-31 04:54:00,
2013-12-30 23:59:00,19.4,12.6,-100.00,SSE,161,0.0,4.0,74,0.00,,,0.00,meteohub,2013-12-31 04:59:00,